VK8HF Weather Reports


time (UTC)temp
C
wind
direction
speed
KPH
gust
KPH
rain 1hr
cm
rain 24hr
cm
rain mn
cm
humidity
%
barometer
mb
20260506103037 26 241 0.0 0.0 0.00 0.00 0.00 75 1011.9
20260506101537 26 241 0.0 0.0 0.00 0.00 0.00 75 1011.7
20260506100038 26 241 0.0 0.0 0.00 0.00 0.00 75 1011.4
20260506094639 26 241 0.0 0.0 0.00 0.00 0.00 75 1011.1
20260506093036 26 241 0.0 0.0 0.00 0.00 0.00 74 1010.9
20260506091534 27 241 0.0 0.0 0.00 0.00 0.00 71 1010.8
20260506090039 28 241 0.0 0.0 0.00 0.00 0.00 66 1010.6
20260506084634 30 241 0.0 1.6 0.00 0.00 0.00 61 1010.6
20260506083035 30 194 0.0 4.8 0.00 0.00 0.00 58 1010.5
20260506081534 30 217 3.2 11.3 0.00 0.00 0.00 55 1010.3
20260506073033 31 221 0.0 8.0 0.00 0.00 0.00 56 1010.0
20260506071532 32 249 4.8 14.5 0.00 0.00 0.00 53 1009.8
20260506061532 32 184 1.6 12.9 0.00 0.00 0.00 51 1009.6
20260506044618 32 190 4.8 14.5 0.00 0.00 0.00 53 1010.2
20260506043017 31 263 6.4 14.5 0.00 0.00 0.00 54 1010.4
20260506041514 31 224 4.8 16.1 0.00 0.00 0.00 55 1010.7
20260506040012 31 201 3.2 16.1 0.00 0.00 0.00 56 1010.8
20260506034618 31 223 3.2 12.9 0.00 0.00 0.00 57 1011.0
20260506033010 31 161 4.8 17.7 0.00 0.00 0.00 55 1011.3
20260506031506 31 191 8.0 14.5 0.00 0.00 0.00 54 1011.5
20260506030004 31 243 1.6 12.9 0.00 0.00 0.00 57 1011.7
20260506024602 30 231 4.8 12.9 0.00 0.00 0.00 58 1011.9
20260506023105 30 241 6.4 19.3 0.00 0.00 0.00 57 1012.2
20260506021556 30 195 6.4 19.3 0.00 0.00 0.00 59 1012.4
20260506020057 30 230 6.4 22.5 0.00 0.00 0.00 60 1012.5
20260506014552 30 205 8.0 20.9 0.00 0.00 0.00 60 1012.6
20260506013102 30 237 9.7 17.7 0.00 0.00 0.00 60 1012.7
20260506011545 28 254 8.0 19.3 0.00 0.00 0.00 61 1012.8
20260506010054 28 209 8.0 24.1 0.00 0.00 0.00 62 1013.0
20260506004540 28 260 9.7 20.9 0.00 0.00 0.00 65 1013.1
20260506003039 28 235 3.2 16.1 0.00 0.00 0.00 66 1013.2
20260506001535 27 263 3.2 16.1 0.00 0.00 0.00 68 1013.2
20260506000034 27 247 6.4 17.7 0.00 0.00 0.00 68 1013.4
20260505234534 27 234 4.8 12.9 0.00 0.00 0.00 70 1013.4
20260505233028 26 233 4.8 11.3 0.00 0.00 0.00 71 1013.3
20260505231526 26 263 3.2 11.3 0.00 0.00 0.00 74 1013.3
20260505230031 25 258 3.2 11.3 0.00 0.00 0.00 75 1013.2
20260505224518 25 212 0.0 8.0 0.00 0.00 0.00 77 1012.9
20260505223020 25 225 1.6 8.0 0.00 0.00 0.00 78 1012.8
20260505221519 24 199 0.0 3.2 0.00 0.00 0.00 79 1012.7
20260505220022 23 256 0.0 0.0 0.00 0.00 0.00 78 1012.5
20260505214518 22 256 0.0 0.0 0.00 0.00 0.00 78 1012.4
20260505213024 22 256 0.0 0.0 0.00 0.00 0.00 78 1012.3
20260505211521 22 256 0.0 0.0 0.00 0.00 0.00 79 1012.0
20260505210017 23 256 0.0 0.0 0.00 0.00 0.00 79 1011.7
20260505204514 23 256 0.0 1.6 0.00 0.00 0.00 80 1011.5
20260505203023 23 256 0.0 1.6 0.00 0.00 0.00 80 1011.3
20260505201511 23 268 0.0 1.6 0.00 0.00 0.00 80 1011.1
20260505200010 23 232 0.0 1.6 0.00 0.00 0.00 80 1011.0
20260505194509 23 232 0.0 0.0 0.00 0.00 0.00 80 1010.9
20260505193009 23 232 0.0 1.6 0.00 0.00 0.00 80 1011.0
20260505191507 23 229 0.0 3.2 0.00 0.00 0.00 80 1010.8
20260505190006 23 224 0.0 1.6 0.00 0.00 0.00 80 1010.8
20260505184506 23 213 0.0 3.2 0.00 0.00 0.00 80 1010.8
20260505183005 23 248 0.0 1.6 0.00 0.00 0.00 80 1010.9
20260505181503 24 248 0.0 0.0 0.00 0.00 0.00 80 1010.9
20260505180001 24 248 0.0 0.0 0.00 0.00 0.00 80 1011.1
20260505174600 25 248 0.0 0.0 0.00 0.00 0.00 79 1011.1
20260505173002 25 231 0.0 3.2 0.00 0.00 0.00 79 1011.1
20260505171502 25 223 0.0 0.0 0.00 0.00 0.00 79 1011.2
20260505170003 25 278 0.0 0.0 0.00 0.00 0.00 79 1011.3
20260505164601 25 278 0.0 0.0 0.00 0.00 0.00 79 1011.4
20260505163058 25 279 0.0 4.8 0.00 0.00 0.00 79 1011.3
20260505161621 25 276 0.0 6.4 0.00 0.00 0.00 78 1011.4
20260505153100 26 274 0.0 3.2 0.00 0.00 0.00 72 1011.7
20260505151618 26 275 0.0 6.4 0.00 0.00 0.00 72 1011.8
20260505124508 25 104 0.0 0.0 0.00 0.00 0.00 76 1011.6
20260505123051 25 104 0.0 0.0 0.00 0.00 0.00 77 1011.7
20260505121550 26 104 0.0 0.0 0.00 0.00 0.00 79 1011.7
20260505120105 26 104 0.0 0.0 0.00 0.00 0.00 80 1011.7
20260505114547 26 104 0.0 0.0 0.00 0.00 0.00 80 1011.5
20260505113048 26 104 0.0 0.0 0.00 0.00 0.00 79 1011.5
20260505111545 26 104 0.0 0.0 0.00 0.00 0.00 79 1011.4